When you browse on this site, cookies collect data to enhance your experience and personalize the content and advertising you see.
Visit our Privacy Policy to learn more. By continuing to use the site, you agree to this use of cookies and data.
  • In Romania
  • List of Countries
  • For 7 days
  • Water Temperature
  • Satellite Maps
  • Weather Map
  • Weather Widgets
  • user-avatar
    Login

    Hourly Weather Dremuchevo

    Today, 17 January, Thursday

    Time Temperature Precipitation Wind Pressure Humidity
    00:00 -8°C° 0 mm 4 mps 729 mmHg 91%
    01:00 -8°C° 0 mm 4 mps 730 mmHg 90%
    02:00 -9°C° 0 mm 4 mps 730 mmHg 90%
    03:00 -9°C° 0 mm 4 mps 730 mmHg 89%
    04:00 -10°C° 0 mm 4 mps 730 mmHg 89%
    05:00 -9°C° 0 mm 3 mps 731 mmHg 88%
    06:00 -10°C° 0 mm 3 mps 730 mmHg 90%
    07:00 -12°C° 0 mm 3 mps 730 mmHg 92%
    08:00 -13°C° 0 mm 3 mps 729 mmHg 93%
    09:00 -12°C° 0.1 mm 4 mps 729 mmHg 93%
    10:00 -13°C° 0.1 mm 5 mps 728 mmHg 92%
    11:00 -12°C° 0.1 mm 5 mps 728 mmHg 92%
    12:00 -11°C° 0.3 mm 5 mps 727 mmHg 92%
    13:00 -10°C° 0.3 mm 5 mps 726 mmHg 91%
    14:00 -9°C° 0.3 mm 6 mps 725 mmHg 91%
    15:00 -6°C° 0.3 mm 6 mps 724 mmHg 90%
    16:00 -5°C° 0.3 mm 6 mps 724 mmHg 89%
    17:00 -3°C° 0.3 mm 6 mps 723 mmHg 88%
    18:00 -3°C° 0.4 mm 6 mps 723 mmHg 88%
    19:00 -3°C° 0.4 mm 7 mps 722 mmHg 88%
    20:00 -2°C° 0.4 mm 7 mps 721 mmHg 88%
    21:00 -2°C° 0.6 mm 6 mps 721 mmHg 88%
    22:00 -2°C° 0.6 mm 6 mps 721 mmHg 88%
    23:00 -2°C° 0.6 mm 6 mps 720 mmHg 88%

    Tomorrow, 18 January, Friday

    Time Temperature Precipitation Wind Pressure Humidity
    00:00 -2°C° 0.5 mm 6 mps 721 mmHg 88%
    01:00 -2°C° 0.5 mm 6 mps 721 mmHg 88%
    02:00 -2°C° 0.5 mm 6 mps 722 mmHg 88%
    03:00 -2°C° 0.2 mm 5 mps 723 mmHg 87%
    04:00 -4°C° 0.2 mm 5 mps 724 mmHg 86%
    05:00 -4°C° 0.2 mm 5 mps 725 mmHg 85%
    06:00 -6°C° 0 mm 5 mps 725 mmHg 85%
    07:00 -7°C° 0 mm 4 mps 726 mmHg 86%
    08:00 -8°C° 0 mm 4 mps 727 mmHg 86%
    09:00 -9°C° 0 mm 4 mps 728 mmHg 87%
    10:00 -9°C° 0 mm 4 mps 729 mmHg 87%
    11:00 -10°C° 0 mm 4 mps 729 mmHg 87%
    12:00 -10°C° 0 mm 4 mps 730 mmHg 88%
    13:00 -9°C° 0 mm 3 mps 730 mmHg 88%
    14:00 -9°C° 0 mm 3 mps 731 mmHg 88%
    15:00 -10°C° 0 mm 2 mps 731 mmHg 90%
    16:00 -12°C° 0 mm 2 mps 732 mmHg 92%
    17:00 -11°C° 0 mm 1 mps 732 mmHg 94%
    18:00 -12°C° 0 mm 1 mps 732 mmHg 94%
    19:00 -12°C° 0 mm 1 mps 731 mmHg 95%
    20:00 -12°C° 0 mm 1 mps 731 mmHg 95%
    21:00 -12°C° 0.1 mm 1 mps 731 mmHg 95%
    22:00 -11°C° 0.1 mm 1 mps 731 mmHg 96%
    23:00 -11°C° 0.1 mm 1 mps 731 mmHg 96%

    Day after tomorrow, 19 January, Saturday

    Time Temperature Precipitation Wind Pressure Humidity
    00:00 -11°C° 0 mm 1 mps 731 mmHg 96%
    01:00 -11°C° 0 mm 1 mps 731 mmHg 95%
    02:00 -13°C° 0 mm 2 mps 731 mmHg 95%
    03:00 -14°C° 0.1 mm 2 mps 732 mmHg 95%
    04:00 -14°C° 0.1 mm 2 mps 732 mmHg 95%
    05:00 -15°C° 0.1 mm 3 mps 733 mmHg 95%
    06:00 -15°C° 0 mm 3 mps 733 mmHg 94%
    07:00 -15°C° 0 mm 3 mps 734 mmHg 94%
    08:00 -15°C° 0 mm 3 mps 734 mmHg 93%
    09:00 -14°C° 0 mm 3 mps 735 mmHg 92%
    10:00 -14°C° 0 mm 3 mps 735 mmHg 92%
    11:00 -15°C° 0 mm 4 mps 735 mmHg 91%
    12:00 -13°C° 0 mm 3 mps 736 mmHg 91%
    13:00 -13°C° 0 mm 3 mps 736 mmHg 91%
    14:00 -10°C° 0 mm 2 mps 736 mmHg 91%
    15:00 -10°C° 0.1 mm 2 mps 736 mmHg 93%
    16:00 -10°C° 0.1 mm 1 mps 736 mmHg 95%
    17:00 -10°C° 0.1 mm 1 mps 737 mmHg 96%
    18:00 -10°C° 0.1 mm 1 mps 737 mmHg 97%
    19:00 -10°C° 0.1 mm 1 mps 737 mmHg 97%
    20:00 -11°C° 0.1 mm 1 mps 737 mmHg 97%
    21:00 -11°C° 0 mm 1 mps 737 mmHg 97%
    22:00 -11°C° 0 mm 1 mps 737 mmHg 97%
    23:00 -13°C° 0 mm 2 mps 738 mmHg 97%

    20 January, Sunday

    Time Temperature Precipitation Wind Pressure Humidity
    00:00 -13°C° 0 mm 2 mps 738 mmHg 97%
    01:00 -13°C° 0 mm 2 mps 738 mmHg 96%
    02:00 -13°C° 0 mm 2 mps 739 mmHg 96%
    03:00 -13°C° 0 mm 2 mps 739 mmHg 96%
    04:00 -14°C° 0 mm 2 mps 739 mmHg 97%
    05:00 -14°C° 0 mm 2 mps 738 mmHg 97%
    06:00 -13°C° 0 mm 2 mps 738 mmHg 97%
    07:00 -12°C° 0 mm 2 mps 739 mmHg 97%
    08:00 -12°C° 0 mm 2 mps 739 mmHg 97%
    09:00 -12°C° 0.1 mm 3 mps 739 mmHg 95%
    10:00 -10°C° 0.1 mm 3 mps 739 mmHg 94%
    11:00 -8°C° 0.1 mm 3 mps 739 mmHg 92%
    12:00 -8°C° 0.1 mm 3 mps 739 mmHg 91%
    13:00 -8°C° 0.1 mm 3 mps 738 mmHg 91%
    14:00 -8°C° 0.1 mm 3 mps 738 mmHg 90%
    15:00 -9°C° 0.1 mm 3 mps 738 mmHg 91%
    16:00 -9°C° 0.1 mm 3 mps 738 mmHg 92%
    17:00 -10°C° 0.1 mm 3 mps 738 mmHg 93%
    18:00 -9°C° 0 mm 2 mps 738 mmHg 94%
    19:00 -9°C° 0 mm 2 mps 739 mmHg 94%
    20:00 -9°C° 0 mm 2 mps 739 mmHg 95%
    21:00 -9°C° 0 mm 2 mps 739 mmHg 95%
    22:00 -9°C° 0 mm 2 mps 739 mmHg 95%
    23:00 -9°C° 0 mm 2 mps 739 mmHg 96%

    21 January, Monday

    Time Temperature Precipitation Wind Pressure Humidity
    00:00 -10°C° 0 mm 2 mps 739 mmHg 96%
    01:00 -12°C° 0 mm 2 mps 740 mmHg 96%
    02:00 -13°C° 0 mm 2 mps 740 mmHg 97%
    03:00 -13°C° 0 mm 2 mps 739 mmHg 97%
    04:00 -13°C° 0 mm 2 mps 739 mmHg 97%
    05:00 -13°C° 0 mm 2 mps 739 mmHg 97%
    06:00 -13°C° 0 mm 2 mps 739 mmHg 97%
    07:00 -12°C° 0 mm 1 mps 739 mmHg 98%
    08:00 -12°C° 0 mm 1 mps 739 mmHg 98%
    09:00 -11°C° 0.1 mm 1 mps 739 mmHg 97%
    10:00 -10°C° 0.1 mm 0 mps 739 mmHg 96%
    11:00 -10°C° 0.1 mm 0 mps 739 mmHg 96%
    12:00 -9°C° 0.1 mm 1 mps 739 mmHg 96%
    13:00 -9°C° 0.1 mm 1 mps 739 mmHg 95%
    14:00 -10°C° 0.1 mm 2 mps 739 mmHg 95%
    15:00 -10°C° 0.1 mm 2 mps 739 mmHg 95%
    16:00 -12°C° 0.1 mm 2 mps 739 mmHg 95%
    17:00 -14°C° 0.1 mm 3 mps 739 mmHg 95%
    18:00 -15°C° 0 mm 3 mps 739 mmHg 96%
    19:00 -16°C° 0 mm 3 mps 740 mmHg 96%
    20:00 -18°C° 0 mm 3 mps 740 mmHg 97%
    21:00 -18°C° 0 mm 2 mps 740 mmHg 97%
    22:00 -19°C° 0 mm 2 mps 740 mmHg 98%
    23:00 -21°C° 0 mm 2 mps 740 mmHg 99%

    22 January, Tuesday

    Time Temperature Precipitation Wind Pressure Humidity
    00:00 -19°C° 0 mm 1 mps 740 mmHg 99%
    01:00 -20°C° 0 mm 1 mps 740 mmHg 99%
    02:00 -20°C° 0 mm 1 mps 740 mmHg 99%
    03:00 -21°C° 0 mm 1 mps 740 mmHg 99%
    04:00 -21°C° 0 mm 1 mps 740 mmHg 99%
    05:00 -21°C° 0 mm 0 mps 740 mmHg 99%
    06:00 -21°C° 0 mm 0 mps 740 mmHg 99%
    07:00 -21°C° 0 mm 0 mps 740 mmHg 99%
    08:00 -21°C° 0 mm 0 mps 740 mmHg 99%
    09:00 -20°C° 0 mm 0 mps 741 mmHg 98%
    10:00 -19°C° 0 mm 0 mps 741 mmHg 97%
    11:00 -17°C° 0 mm 0 mps 741 mmHg 96%
    12:00 -17°C° 0 mm 0 mps 741 mmHg 96%
    13:00 -17°C° 0 mm 0 mps 741 mmHg 96%
    14:00 -16°C° 0 mm 0 mps 741 mmHg 96%
    15:00 -17°C° 0 mm 0 mps 742 mmHg 97%
    16:00 -18°C° 0 mm 1 mps 742 mmHg 97%
    17:00 -18°C° 0 mm 1 mps 742 mmHg 98%
    18:00 -18°C° 0 mm 1 mps 742 mmHg 98%
    19:00 -19°C° 0 mm 1 mps 742 mmHg 98%
    20:00 -19°C° 0 mm 1 mps 742 mmHg 98%
    21:00 -19°C° 0 mm 1 mps 743 mmHg 98%
    22:00 -19°C° 0 mm 1 mps 743 mmHg 98%
    23:00 -20°C° 0 mm 1 mps 743 mmHg 99%
    Show more